Retour au catalogue

COSMOS 839 DEB

ActifUNKNOWN
NORAD 10464·DEBRIS·🇷🇺 Russia

Lancé Jul 8, 1976 depuis Plesetsk Cosmodrome

Loading…

Prochains Passages (prochaines 24 heures)

TLE

FraisSource: Space-Track

Époque: Sep 13, 2026, 08:30 UTC

1 10464U 76067AH  26256.35452174  .00000230  00000-0  77812-3 0  9996
2 10464  65.8335  26.9471 0716865 186.5323 204.5118 12.46940749278191

Suivez COSMOS 839 DEB en temps réel avec AllMySat

Download on the App Store